This is the latest recevied weather packets stored in our database for station/object KL4TQ. If no packets are shown the sender has not sent any weather packets the latest 10 day(s).
| Time | Temp. | Humidity | Pressure | Rain* | Wind** | Luminosity | Snow |
|---|---|---|---|---|---|---|---|
| 1777512368 | 5.56° C | 58% | 857 hPa | 0 mm | - | 240 W/m² | - |
| 1777512069 | 6.11° C | 55% | 857 hPa | 0 mm | - | 181 W/m² | - |
| 1777511768 | 5.56° C | 55% | 857 hPa | 0 mm | - | 460 W/m² | - |
| 1777511468 | 5.56° C | 57% | 857 hPa | 0 mm | - | 368 W/m² | - |
| 1777511169 | 5.56° C | 57% | 857 hPa | 0 mm | - | 377 W/m² | - |
| 1777510869 | 5.56° C | 57% | 857 hPa | 0 mm | - | 299 W/m² | - |
| 1777510569 | 5.56° C | 56% | 857 hPa | 0 mm | - | 295 W/m² | - |
| 1777510269 | 5.56° C | 56% | 857 hPa | 0 mm | - | 190 W/m² | - |
| 1777509968 | 5.56° C | 56% | 857 hPa | 0 mm | - | 226 W/m² | - |
| 1777509670 | 6.11° C | 57% | 857 hPa | 0 mm | - | 201 W/m² | - |
| 1777509368 | 6.11° C | 58% | 857 hPa | 0 mm | - | 322 W/m² | - |
| 1777509069 | 6.11° C | 59% | 857 hPa | 0 mm | - | 293 W/m² | - |
| 1777508769 | 6.11° C | 57% | 857 hPa | 0 mm | - | 461 W/m² | - |
| 1777508469 | 5.56° C | 63% | 857 hPa | 0 mm | - | 701 W/m² | - |
| 1777508168 | 5° C | 63% | 857 hPa | 2.79 mm | - | 633 W/m² | - |
| 1777507868 | 5.56° C | 63% | 857 hPa | 4.06 mm | - | 411 W/m² | - |
| 1777507568 | 5.56° C | 60% | 857 hPa | 16.26 mm | - | 230 W/m² | - |
| 1777507268 | 5.56° C | 61% | 857 hPa | 0.76 mm | - | 334 W/m² | - |
| 1777506968 | 5° C | 63% | 857 hPa | 0 mm | - | 606 W/m² | - |
| 1777506668 | 4.44° C | 66% | 857 hPa | 0 mm | - | 227 W/m² | - |
| 1777506368 | 4.44° C | 66% | 857 hPa | 0 mm | - | 219 W/m² | - |
| 1777506069 | 4.44° C | 66% | 857 hPa | 0.76 mm | - | 308 W/m² | - |
| 1777505769 | 5° C | 67% | 857 hPa | 1.02 mm | - | 274 W/m² | - |
| 1777505469 | 5° C | 65% | 857 hPa | 0 mm | - | 218 W/m² | - |
| 1777505169 | 5.56° C | 63% | 857 hPa | 0 mm | - | 264 W/m² | - |
* Rain latest hour (hover to see other rain measurements)
** Current wind speed in m/s (hover to see current wind gust speed)